Terminal Aerodrome Forecast
Issued by NWS Corpus Christi, TX

Home | Current Version | Previous Version | Text Only | Print | Product List | Glossary On
Versions: 1 2 3 4 5 6 7 8 9 10 11 12 13 14 15 16 17 18
000
FTUS44 KCRP 290542
TAFVCT
TAF
KVCT 290542Z 2906/3006 16018G25KT 5SM BR OVC015
     FM291500 15020G28KT P6SM BKN025
     FM292000 15020G30KT P6SM BKN035
     FM300100 14014G25KT 6SM BR BKN015=

USA.gov is the U.S. government's official web portal to all federal, state and local government web resources and services.